• în România
  • Lista ţărilor
  • Pe 7 zile
  • Temperatura apei
  • Hartă satelitară
  • Meteo pe hartă
  • Widget-uri
  • user-avatar
    Intrare

    Meteo pe oră la Sibirskiy

    Astăzi, 14 Noiembrie, Miercuri

    Timp Temperatura Precipitaţii Vânt Presiune Umiditate
    00:00 -8°C° 0 mm 3 m/s 769 mmHg 33%
    01:00 -8°C° 0 mm 3 m/s 769 mmHg 33%
    02:00 -8°C° 0 mm 3 m/s 768 mmHg 34%
    03:00 -8°C° 0 mm 3 m/s 768 mmHg 35%
    04:00 -9°C° 0 mm 3 m/s 768 mmHg 35%
    05:00 -9°C° 0 mm 3 m/s 767 mmHg 36%
    06:00 -9°C° 0 mm 3 m/s 767 mmHg 36%
    07:00 -8°C° 0 mm 3 m/s 767 mmHg 36%
    08:00 -9°C° 0 mm 4 m/s 767 mmHg 35%
    09:00 -9°C° 0 mm 4 m/s 766 mmHg 35%
    10:00 -8°C° 0 mm 4 m/s 766 mmHg 35%
    11:00 -5°C° 0 mm 4 m/s 766 mmHg 36%
    12:00 -4°C° 0 mm 4 m/s 765 mmHg 36%
    13:00 -4°C° 0 mm 4 m/s 765 mmHg 38%
    14:00 -3°C° 0 mm 4 m/s 765 mmHg 41%
    15:00 -3°C° 0 mm 4 m/s 764 mmHg 43%
    16:00 -4°C° 0 mm 4 m/s 764 mmHg 47%
    17:00 -4°C° 0 mm 3 m/s 764 mmHg 51%
    18:00 -5°C° 0 mm 3 m/s 764 mmHg 55%
    19:00 -5°C° 0 mm 3 m/s 764 mmHg 55%
    20:00 -5°C° 0 mm 3 m/s 764 mmHg 56%
    21:00 -5°C° 0 mm 4 m/s 764 mmHg 56%
    22:00 -5°C° 0 mm 3 m/s 764 mmHg 54%
    23:00 -5°C° 0 mm 3 m/s 764 mmHg 52%

    Mâine, 15 Noiembrie, Joi

    Timp Temperatura Precipitaţii Vânt Presiune Umiditate
    00:00 -6°C° 0 mm 3 m/s 764 mmHg 50%
    01:00 -6°C° 0 mm 3 m/s 764 mmHg 48%
    02:00 -6°C° 0 mm 3 m/s 765 mmHg 46%
    03:00 -6°C° 0 mm 3 m/s 765 mmHg 43%
    04:00 -6°C° 0 mm 3 m/s 765 mmHg 41%
    05:00 -6°C° 0 mm 3 m/s 765 mmHg 40%
    06:00 -6°C° 0 mm 3 m/s 765 mmHg 38%
    07:00 -6°C° 0 mm 3 m/s 765 mmHg 35%
    08:00 -6°C° 0 mm 3 m/s 765 mmHg 33%
    09:00 -5°C° 0 mm 3 m/s 766 mmHg 30%
    10:00 -5°C° 0 mm 3 m/s 766 mmHg 28%
    11:00 -4°C° 0 mm 3 m/s 766 mmHg 26%
    12:00 -2°C° 0 mm 3 m/s 766 mmHg 23%
    13:00 -1°C° 0 mm 3 m/s 766 mmHg 23%
    14:00 -1°C° 0 mm 3 m/s 766 mmHg 24%
    15:00 -1°C° 0 mm 3 m/s 766 mmHg 24%
    16:00 -2°C° 0 mm 3 m/s 766 mmHg 26%
    17:00 -4°C° 0 mm 3 m/s 766 mmHg 29%
    18:00 -5°C° 0 mm 3 m/s 766 mmHg 31%
    19:00 -5°C° 0 mm 3 m/s 767 mmHg 31%
    20:00 -5°C° 0 mm 3 m/s 767 mmHg 32%
    21:00 -5°C° 0 mm 3 m/s 767 mmHg 32%
    22:00 -4°C° 0 mm 2 m/s 767 mmHg 33%
    23:00 -5°C° 0 mm 2 m/s 767 mmHg 33%

    Poimâine, 16 Noiembrie, Vineri

    Timp Temperatura Precipitaţii Vânt Presiune Umiditate
    00:00 -5°C° 0 mm 2 m/s 768 mmHg 34%
    01:00 -5°C° 0 mm 2 m/s 768 mmHg 34%
    02:00 -5°C° 0 mm 2 m/s 768 mmHg 34%
    03:00 -5°C° 0 mm 2 m/s 768 mmHg 34%
    04:00 -6°C° 0 mm 3 m/s 768 mmHg 34%
    05:00 -6°C° 0 mm 3 m/s 768 mmHg 34%
    06:00 -6°C° 0 mm 3 m/s 768 mmHg 33%
    07:00 -6°C° 0 mm 3 m/s 769 mmHg 32%
    08:00 -6°C° 0 mm 3 m/s 769 mmHg 30%
    09:00 -5°C° 0 mm 3 m/s 769 mmHg 29%
    10:00 -4°C° 0 mm 3 m/s 769 mmHg 27%
    11:00 -2°C° 0 mm 3 m/s 769 mmHg 25%
    12:00 -1°C° 0 mm 3 m/s 769 mmHg 23%
    13:00 -1°C° 0 mm 3 m/s 769 mmHg 23%
    14:00 -1°C° 0 mm 3 m/s 769 mmHg 24%
    15:00 -1°C° 0 mm 3 m/s 769 mmHg 25%
    16:00 -1°C° 0 mm 3 m/s 769 mmHg 27%
    17:00 -2°C° 0 mm 3 m/s 769 mmHg 29%
    18:00 -4°C° 0 mm 3 m/s 769 mmHg 30%
    19:00 -4°C° 0 mm 3 m/s 769 mmHg 30%
    20:00 -4°C° 0 mm 3 m/s 769 mmHg 29%
    21:00 -5°C° 0 mm 3 m/s 769 mmHg 29%
    22:00 -5°C° 0 mm 3 m/s 769 mmHg 28%
    23:00 -5°C° 0 mm 3 m/s 769 mmHg 27%

    17 Noiembrie, Sâmbătă

    Timp Temperatura Precipitaţii Vânt Presiune Umiditate
    00:00 -4°C° 0 mm 2 m/s 769 mmHg 27%
    01:00 -4°C° 0 mm 2 m/s 768 mmHg 26%
    02:00 -4°C° 0 mm 2 m/s 768 mmHg 26%
    03:00 -5°C° 0 mm 2 m/s 768 mmHg 25%
    04:00 -5°C° 0 mm 2 m/s 768 mmHg 25%
    05:00 -5°C° 0 mm 2 m/s 768 mmHg 24%
    06:00 -5°C° 0 mm 2 m/s 767 mmHg 24%
    07:00 -5°C° 0 mm 2 m/s 767 mmHg 23%
    08:00 -4°C° 0 mm 2 m/s 767 mmHg 22%
    09:00 -4°C° 0 mm 2 m/s 767 mmHg 21%
    10:00 -3°C° 0 mm 2 m/s 767 mmHg 20%
    11:00 -2°C° 0 mm 2 m/s 766 mmHg 18%
    12:00 -1°C° 0 mm 2 m/s 766 mmHg 16%
    13:00 -1°C° 0 mm 2 m/s 765 mmHg 18%
    14:00 +1°C° 0 mm 1 m/s 765 mmHg 19%
    15:00 +1°C° 0 mm 1 m/s 764 mmHg 20%
    16:00 +1°C° 0 mm 1 m/s 764 mmHg 21%
    17:00 0°C° 0 mm 1 m/s 763 mmHg 21%
    18:00 -1°C° 0 mm 1 m/s 763 mmHg 22%
    19:00 -1°C° 0 mm 1 m/s 762 mmHg 21%
    20:00 -1°C° 0 mm 1 m/s 762 mmHg 21%
    21:00 -2°C° 0 mm 0 m/s 762 mmHg 21%
    22:00 -1°C° 0 mm 1 m/s 761 mmHg 21%
    23:00 -2°C° 0 mm 1 m/s 760 mmHg 21%

    18 Noiembrie, Duminică

    Timp Temperatura Precipitaţii Vânt Presiune Umiditate
    00:00 -2°C° 0 mm 1 m/s 760 mmHg 21%
    01:00 -2°C° 0 mm 1 m/s 759 mmHg 22%
    02:00 -4°C° 0 mm 2 m/s 758 mmHg 22%
    03:00 -4°C° 0 mm 2 m/s 758 mmHg 23%
    04:00 -5°C° 0 mm 2 m/s 757 mmHg 23%
    05:00 -5°C° 0 mm 2 m/s 756 mmHg 24%
    06:00 -5°C° 0 mm 2 m/s 755 mmHg 25%
    07:00 -5°C° 0 mm 2 m/s 755 mmHg 24%
    08:00 -5°C° 0 mm 2 m/s 754 mmHg 24%
    09:00 -4°C° 0 mm 2 m/s 754 mmHg 24%
    10:00 -4°C° 0 mm 3 m/s 753 mmHg 23%
    11:00 -2°C° 0 mm 3 m/s 753 mmHg 22%
    12:00 -1°C° 0 mm 3 m/s 752 mmHg 21%
    13:00 -1°C° 0 mm 3 m/s 752 mmHg 22%
    14:00 -1°C° 0 mm 2 m/s 752 mmHg 24%
    15:00 -1°C° 0 mm 2 m/s 751 mmHg 26%
    16:00 -2°C° 0 mm 2 m/s 751 mmHg 29%
    17:00 -2°C° 0 mm 2 m/s 751 mmHg 32%
    18:00 -3°C° 0 mm 2 m/s 751 mmHg 34%
    19:00 -3°C° 0 mm 2 m/s 751 mmHg 35%
    20:00 -3°C° 0 mm 2 m/s 751 mmHg 36%
    21:00 -3°C° 0 mm 2 m/s 751 mmHg 38%
    22:00 -3°C° 0 mm 2 m/s 752 mmHg 37%
    23:00 -4°C° 0 mm 2 m/s 752 mmHg 37%

    19 Noiembrie, Luni

    Timp Temperatura Precipitaţii Vânt Presiune Umiditate
    00:00 -4°C° 0 mm 2 m/s 752 mmHg 36%
    01:00 -4°C° 0 mm 2 m/s 752 mmHg 38%
    02:00 -4°C° 0 mm 2 m/s 753 mmHg 39%
    03:00 -5°C° 0 mm 3 m/s 753 mmHg 40%
    04:00 -5°C° 0 mm 3 m/s 753 mmHg 41%
    05:00 -5°C° 0 mm 3 m/s 754 mmHg 41%
    06:00 -5°C° 0 mm 3 m/s 754 mmHg 42%
    07:00 -5°C° 0 mm 3 m/s 755 mmHg 43%
    08:00 -4°C° 0 mm 3 m/s 755 mmHg 45%
    09:00 -4°C° 0 mm 3 m/s 756 mmHg 46%
    10:00 -2°C° 0 mm 3 m/s 756 mmHg 47%
    11:00 -1°C° 0 mm 3 m/s 756 mmHg 48%
    12:00 0°C° 0 mm 3 m/s 757 mmHg 49%
    13:00 0°C° 0 mm 3 m/s 757 mmHg 48%
    14:00 0°C° 0 mm 3 m/s 757 mmHg 46%
    15:00 +1°C° 0 mm 2 m/s 757 mmHg 45%
    16:00 -1°C° 0 mm 3 m/s 757 mmHg 45%
    17:00 -1°C° 0 mm 3 m/s 757 mmHg 45%
    18:00 -2°C° 0 mm 3 m/s 757 mmHg 45%
    19:00 -2°C° 0 mm 2 m/s 758 mmHg 47%
    20:00 -2°C° 0 mm 2 m/s 758 mmHg 48%
    21:00 -3°C° 0 mm 2 m/s 758 mmHg 50%
    22:00 -3°C° 0 mm 2 m/s 758 mmHg 52%
    23:00 -3°C° 0 mm 2 m/s 758 mmHg 54%
    Arată mai mult